SCP
0 0 0 0 0 0 0 0 0 0 0 0 0 0 0 0 0 0 0 0 0 0 0 0 0 0 0 0 0 0 0 0 0 0 0 0 0 0 0 0 0 0 0 0 0 0 0 0 0 0 0 0 0 0
0 0 0 0 0 0 0 0 0 0 0 0 0 0 0 0 0 0 0 0 0 0 0 0 0 0 0 0 0 0 0 0 0 0 0 0 0 0 0 0 0 0 0 0 0 0 0 0 0 0 0 0 0 0
0 0 0 0 0 0 0 0 0 0 0 0 0 0 0 0 0 0 0 0 0 0 0 0 0 0 0 0 0 0 0 0 0 0 0 0 0 0 0 0 0 0 0 0 0 0 0 0 0 0 0 0 0 0
-0 0 0 0 0 0 0 0 0 0 0 0 0 0 0 0 0 0 0 0 0 0 0 0 0 0 0 0 0 0 0 0 0 0 0 0 0 0 0 0 0 0 0 0 0 0 0 0 0 0 0 0 0 0
0 0 -0 0 0 0 0 0 0 0 0 0 0 0 0 0 0 0 0 0 0 0 0 0 0 0 0 0 0 0 0 0 0 0 0 0 0 0 0 0 0 0 0 0 0 0 0 0 0 0 0 0 0 0
0 0 0 0 0 0 0 0 0 0 0 0 0 0 0 0 0 0 0 0 0 0 0 0 0 0 0 0 0 0 0 0 0 0 0 0 0 0 0 0 0 0 0 0 0 0 0 0 0 0 0 0 0 0
0 0 0 0 0 0 0 0 0 0 0 0 0 0 0 0 0 0 0 0 0 0 0 0 0 0 0 0 0 0 0 0 0 0 0 0 0 0 0 0 0 0 0 0 0 0 0 0 0 0 0 0 0 0
0 0 0 0 0 0 0 0 0 0 0 0 0 0 0 0 0 0 0 0 0 0 0 0 0 0 0 0 0 0 0 0 0 0 0 0 0 0 0 0 0 0 0 0 0 0 0 0 0 0 0 0 0 0
0 0 0 0 0 0 0 0 0 0 0 0 -0 0 0 0 0 0 0 0 0 0 0 0 0 0 0 0 0 0 0 0 0 0 0 0 0 0 0 0 0 0 0 0 0 0 0 0 0 0 0 0 0 0
0 0 0 0 0 0 0 0 0 0 0 0 0 0 0 0 0 0 0 0 0 0 0 0 0 0 0 0 0 0 0 0 0 0 0 0 0 0 0 0 0 0 0 0 0 0 0 0 0 0 0 0 0 0
0 0 0 0 0 0 0 0 0 0 0 0 0 0 0 0 0 0 0 0 0 0 0 0 0 0 0 0 0 0 0 0 0 0 0 0 0 0 0 0 0 0 0 0 0 0 0 0 0 0 0 0 0 0
0 0 0 0 0 0 0 0 0 0 0 0 0 0 0 0 0 0 0 0 0 0 0 0 0 0 0 0 0 0 0 0 0 0 0 0 0 0 0 0 0 0 0 0 0 0 0 0 0 0 0 0 0 0
0 0 0 0 0 0 0 0 0 0 0 0 0 0 0 0 0 0 0 0 0 0 0 0 0 0 0 0 0 0 0 0 0 0 0 0 0 0 0 0 0 0 0 0 0 0 0 0 0 0 0 0 0 0
0 0 0 0 0 0 0 0 0 0 0 0 0 0 0 0 0 0 0 0 0 0 0 0 0 0 0 0 0 0 0 0 0 0 0 0 0 0 0 0 0 0 0 0 0 0 0 0 0 0 0 0 0 0
0 0 0 0 0 0 0 0 0 0 0 0 0 0 0 0 0 0 0 0 0 0 0 0 0 0 0 0 0 0 0 0 0 0 0 0 0 0 0 0 0 0 0 0 0 0 0 0 0 0 0 0 0 0
0 0 0 0 0 0 0 0 0 0 0 0 0 0 0 0 0 0 0 0 0 0 0 0 0 0 0 0 0 0 0 0 0 0 0 0 0 0 0 0 0 0 0 0 0 0 0 0 0 0 0 0 0 0
0 0 0 0 0 0 0 0 0 0 0 0 0 0 0 0 0 0 0 0 0 0 0 0 0 0 0 0 0 0 0 0 0 0 0 0 0 0 0 0 0 0 0 0 0 0 0 0 0 0 0 0 0 0
0 0 0 0 0 0 0 0 0 0 0 0 0 0 0 0 0 0 0 0 0 0 0 0 0 0 0 0 0 0 0 0 0 0 0 0 0 0 0 0 0 0 0 0 0 0 0 0 0 0 0 0 0 0
0 0 0 0 0 0 0 0 0 0 0 0 0 0 0 0 0 0 0 0 0 0 0 0 0 0 0 0 0 0 0 0 0 0 0 0 0 0 0 0 0 0 0 0 0 0 0 0 0 0 0 0 0 0
0 0 0 0 0 0 0 0 0 0 0 0 0 0 0 0 0 0 0 0 0 0 0 0 0 0 0 0 0 0 0 0 0 0 0 0 0 0 0 0 0 0 0 0 0 0 0 0 0 0 0 0 0 0
0 0 0 0 0 0 0 0 0 0 0 0 0 0 0 0 0 0 0 0 0 0 0 0 0 0 0 0 0 0 0 0 0 0 0 0 0 0 0 0 0 0 0 0 0 0 0 0 0 0 0 0 0 0
0 0 0 0 0 0 0 0 0 0 0 0 0 0 0 0 0 0 0 0 0 0 0 0 0 0 0 0 0 0 0 0 0 0 0 0 0 0 0 0 0 0 0 0 0 0 0 0 0 0 0 0 0 0
0 0 0 0 0 0 0 0 0 0 0 0 0 0 0 0 0 0 0 0 0 0 0 0 0 0 0 0 0 0 0 0 0 0 0 0 0 0 0 0 0 0 0 0 0 0 0 0 0 0 0 0 0 0
0 0 0 0 0 0 0 0 0 0 0 0 0 0 0 0 0 0 0 0 0 0 0 0 0 0 0 0 0 0 0 0 0 0 0 0 0 0 0 0 0 0 0 0 0 0 0 0 0 0 0 0 0 0
0 0 0 0 0 0 0 0 0 0 0 0 0 0 0 0 0 0 0 0 0 0 0 0 0 0 0 0 0 0 0 0 0 0 0 0 0 0 0 0 0 0 0 0 0 0 0 0 0 0 0 0 0 0
-0 0 0 0 0 0 0 0 0 0 0 0 0 0 0 0 0 0 0 0 0 0 0 0 0 0 0 0 0 0 0 0 0 0 0 0 0 0 0 0 0 0 0 0 0 0 0 0 0 0 0 0 0 0
-0 0 0 0 0 0 0 0 0 0 0 0 0 0 0 0 0 0 0 0 0 0 0 0 0 0 0 0 0 0 0 0 0 0 0 0 0 0 0 0 0 0 0 0 0 0 0 0 0 0 0 0 0 0
0 0 0 0 0 0 0 0 0 0 0 0 0 0 0 0 0 0 0 0 0 0 0 0 0 0 0 0 0 0 0 0 0 0 0 0 0 0 0 0 0 0 0 0 0 0 0 0 0 0 0 0 0 0
0 0 0 0 0 0 0 0 0 0 0 0 0 0 0 0 0 0 0 0 0 0 0 0 0 0 0 0 0 0 0 0 0 0 0 0 0 0 0 0 0 0 0 0 0 0 0 0 0 0 0 0 0 0
0 0 0 0 0 0 0 0 0 0 0 0 0 0 0 0 0 0 0 0 0 0 0 0 0 0 0 0 0 0 0 0 0 0 0 0 0 0 0 0 0 0 0 0 0 0 0 0 0 0 0 0 0 0
0 0 0 0 0 0 0 0 0 0 0 0 0 0 0 0 0 0 0 0 0 0 0 0 0 0 0 0 0 0 0 0 0 0 0 0 0 0 0 0 0 0 0 0 0 0 0 0 0 0 0 0 0 0
0 0 0 0 0 -0 0 0 0 0 0 0 0 0 0 0 0 0 0 0 0 0 0 0 0 0 0 0 0 0 0 0 0 0 0 0 0 0 0 0 0 0 0 0 0 0 0 0 0 0 0 0 0 0
0 0 0 0 0 0 0 0 0 0 0 0 0 0 0 0 0 0 0 0 0 0 0 0 0 0 0 -0 0 0 -0 0 0 0 0 0 0 0 0 0 0 0 0 0 0 0 0 0 0 0 0 0 0 0
Wind_Speed_500mb
56 60 60 60 60 59 59 62 61 56 53 46 47 45 42 38 37 36 24 18 19 11 8 15 13 9 10 13 7 18 12 4 3 5 6 6 5 8 5 3 11 14 18 9 4 6 19 26 10 17 11 9 28 34
59 59 66 67 65 62 61 59 59 56 55 54 51 48 48 49 41 47 37 29 26 13 7 24 32 28 25 24 21 35 5 11 14 6 3 6 5 2 4 7 4 6 11 11 17 10 1 56 12 33 20 23 35 42
60 57 62 67 71 64 61 61 57 59 57 57 59 62 51 50 52 49 51 38 32 17 16 27 27 41 30 26 27 20 10 17 17 12 9 4 7 7 9 10 2 8 8 3 6 9 13 49 34 18 30 30 32 38
64 67 65 69 70 71 64 60 65 61 64 61 60 62 55 54 51 54 53 44 41 9 4 8 20 35 34 34 24 21 15 32 27 17 8 5 6 12 6 2 6 7 18 12 5 3 6 23 38 36 36 35 36 38
66 71 73 71 66 68 63 57 62 60 63 63 62 52 57 66 58 48 49 54 50 28 11 6 8 18 33 37 35 27 21 31 20 8 5 4 8 8 3 3 8 17 12 9 9 25 21 21 32 32 37 33 27 34
53 57 62 69 67 63 59 57 66 65 62 61 57 53 54 48 52 57 33 60 73 60 9 2 6 12 33 29 37 34 28 27 18 15 6 9 9 8 6 6 10 26 25 33 16 38 42 40 40 36 35 38 43 42
41 41 51 58 60 61 60 58 62 60 65 50 58 58 51 53 58 49 15 19 48 64 16 3 5 7 26 28 25 28 38 19 15 13 7 14 10 23 5 13 10 16 25 34 46 50 38 51 39 41 37 32 33 35
35 35 35 42 54 59 56 64 56 52 57 54 47 47 49 54 56 58 70 15 54 56 20 8 4 3 19 11 9 18 18 16 10 10 9 6 12 7 9 10 13 42 46 52 62 59 61 60 57 53 41 43 43 47
31 25 14 36 30 52 50 61 55 52 53 50 39 34 40 42 25 34 49 37 68 27 12 7 12 10 26 11 13 12 13 4 14 6 7 19 6 12 18 30 39 63 62 66 60 60 61 62 65 61 58 53 50 50
28 25 23 25 27 38 52 53 65 60 50 47 49 23 11 21 28 49 23 24 25 15 11 4 14 6 20 9 5 11 9 6 6 9 22 8 7 69 51 63 77 69 60 59 60 55 55 54 60 61 56 51 50 53
25 23 23 16 24 22 60 53 54 57 50 61 25 13 36 54 23 12 8 8 8 7 17 15 19 9 19 7 6 8 5 4 6 9 13 5 8 38 64 80 93 88 80 76 71 69 60 58 53 47 46 45 54 51
19 18 16 21 21 26 25 50 56 67 38 60 32 42 49 15 11 9 9 6 5 11 11 10 14 12 19 14 6 10 7 5 11 11 7 6 16 64 51 55 68 72 76 78 73 66 61 58 54 48 43 39 39 36
11 11 11 13 5 25 30 54 51 68 55 53 19 17 16 10 9 13 11 1 9 7 21 18 4 16 12 11 6 5 10 10 16 7 8 11 40 26 16 26 39 48 51 49 48 44 40 38 32 27 26 26 25 23
4 7 17 14 17 14 33 47 78 83 42 10 8 11 8 7 6 6 9 10 8 15 41 38 12 7 9 5 6 9 7 7 8 9 14 7 17 27 23 21 23 28 29 29 28 25 24 23 22 21 21 21 21 21
4 7 12 13 11 20 21 46 60 57 10 9 10 8 4 7 9 9 13 12 9 27 46 14 12 9 3 5 6 6 7 8 11 10 5 21 31 29 25 18 15 15 15 16 16 17 17 18 20 22 23 21 19 17
16 15 24 10 8 9 6 8 20 16 9 10 8 8 3 6 5 7 11 11 14 36 18 9 7 7 7 6 7 12 12 13 7 3 11 21 21 21 17 13 5 6 11 15 16 17 20 21 20 20 21 19 15 11
4 18 22 16 9 4 3 10 12 10 10 8 7 16 9 13 10 10 12 11 28 13 4 4 8 10 3 3 5 3 3 3 4 9 17 17 14 14 12 13 7 8 13 17 21 22 23 25 24 21 17 16 12 8
20 15 16 14 10 8 8 9 9 10 11 15 6 9 13 17 17 16 17 21 11 7 5 4 7 2 1 6 5 4 9 11 11 16 19 18 13 7 3 4 7 10 16 22 25 28 28 27 24 19 14 10 8 6
12 10 9 12 13 8 7 8 9 8 8 7 12 14 15 21 28 17 16 17 18 15 10 6 7 4 5 6 6 13 22 21 15 19 17 13 10 12 13 14 17 19 22 26 27 26 25 23 20 18 16 11 9 7
9 12 8 2 3 6 7 10 10 12 5 5 9 10 11 13 15 25 25 22 17 11 15 10 6 5 5 7 13 19 19 19 13 11 8 5 3 8 12 14 15 16 17 19 19 18 17 17 16 14 14 13 10 7
16 12 5 1 6 11 12 8 13 10 8 11 9 10 11 13 15 19 22 21 23 15 6 13 13 17 14 13 10 15 13 14 8 7 9 8 7 8 10 16 17 17 15 17 16 16 15 15 15 13 10 9 7 5
5 7 10 11 9 10 14 16 11 8 8 8 8 10 13 6 11 15 14 30 14 13 15 22 28 26 17 11 12 13 14 12 9 9 9 9 12 12 13 14 15 15 15 14 13 13 13 12 10 9 7 6 4 3
15 11 10 12 9 13 7 10 7 9 7 2 5 7 6 6 8 9 13 12 10 25 30 29 25 17 13 14 13 15 14 11 7 3 5 9 11 11 13 13 13 12 12 12 11 10 9 8 7 6 6 4 4 4
14 12 16 14 22 4 5 10 9 8 8 7 6 6 6 5 7 12 7 8 22 30 31 28 25 15 13 15 18 17 16 17 14 11 13 12 9 12 12 10 10 8 6 7 6 6 6 6 7 7 6 6 6 6
10 22 16 14 19 11 11 8 9 8 6 6 6 6 4 5 6 7 5 13 36 36 35 27 24 26 22 18 19 20 19 18 19 18 20 19 14 11 9 7 7 5 2 2 3 6 7 8 8 8 9 10 11 12
16 19 13 11 12 9 8 7 9 7 5 7 7 6 5 6 9 8 4 26 29 34 34 30 26 23 25 22 19 19 20 17 16 14 16 15 12 8 4 4 3 3 3 4 6 7 9 11 12 13 13 16 17 19
12 10 16 18 10 7 6 10 11 9 10 9 6 8 6 10 8 6 16 26 26 27 24 21 19 20 23 22 18 16 16 16 14 12 10 10 8 7 7 7 7 6 8 8 9 10 13 15 17 19 21 21 21 24
12 21 10 23 15 20 7 7 9 10 7 13 3 11 7 7 1 12 14 20 19 18 20 22 23 24 26 26 24 20 17 14 12 13 15 15 15 15 13 11 10 11 11 12 13 14 16 18 20 23 25 27 27 28
13 31 12 9 11 16 16 10 7 9 13 6 4 6 6 10 16 20 24 23 23 27 30 29 25 20 21 23 24 26 25 20 15 13 11 8 7 10 14 13 14 16 17 17 18 19 20 20 24 30 32 34 36 41
19 29 9 12 10 11 15 15 15 27 36 36 37 53 46 42 38 35 37 37 39 40 38 36 32 30 30 25 21 18 18 19 22 21 20 19 23 25 25 25 25 25 27 29 30 30 31 34 35 39 43 46 48 51
19 15 10 15 9 8 15 24 34 38 42 43 42 41 32 25 48 52 38 31 27 27 29 34 36 41 43 42 37 31 24 17 24 26 28 30 33 36 38 39 40 41 43 43 43 44 46 47 48 50 52 54 55 57
18 16 7 7 3 6 8 8 11 15 14 12 11 14 11 8 9 17 62 50 38 36 34 36 41 47 50 47 38 34 36 40 43 44 44 44 44 46 47 47 47 49 49 50 51 53 55 57 60 61 63 66 67 68
8 14 15 9 5 4 10 7 4 5 5 4 5 8 9 6 6 5 12 61 51 34 31 34 42 51 47 38 35 31 35 37 38 38 38 39 40 41 40 37 44 46 50 54 56 57 58 58 60 61 62 64 66 67
Wind_Direction_500mb
264 263 262 267 270 249 248 244 243 244 234 233 231 234 227 225 225 226 231 214 206 190 206 215 219 176 150 160 153 155 113 127 104 182 157 168 146 187 122 137 172 161 172 199 124 190 257 165 106 167 191 140 165 171
267 263 260 261 261 271 239 245 238 239 230 234 234 231 223 218 218 221 223 211 203 213 245 214 220 218 215 224 180 171 122 155 153 109 100 105 135 162 125 209 179 231 188 180 189 204 258 176 185 188 164 170 183 197
267 264 261 257 256 259 260 239 238 241 240 240 234 230 222 216 214 215 217 215 192 215 257 246 236 222 213 201 197 150 194 173 183 151 147 135 164 135 160 235 166 241 146 183 106 195 211 197 206 188 212 225 232 236
268 267 262 253 254 249 256 244 231 238 238 241 236 232 212 217 214 214 217 212 207 167 198 257 229 224 214 211 203 193 179 174 165 152 115 137 150 191 188 166 198 199 133 158 262 235 195 232 218 222 235 247 260 264
273 266 257 249 249 244 245 247 230 232 236 236 229 228 221 219 208 209 218 227 225 201 198 257 237 213 211 214 216 210 200 181 159 123 96 172 128 119 20 33 247 182 158 174 211 199 189 214 230 246 242 248 262 270
282 269 258 238 239 236 237 243 231 229 228 228 226 224 226 228 214 210 198 229 218 198 191 190 213 187 200 198 211 209 200 193 182 141 172 165 149 129 140 216 228 184 193 219 221 248 232 257 261 262 252 251 261 263
288 272 253 230 229 232 234 237 237 220 220 226 220 218 217 216 210 206 191 223 210 205 189 198 297 191 187 182 185 192 196 194 192 161 148 141 176 170 119 241 109 180 219 230 241 246 251 254 258 265 260 264 259 257
315 277 238 235 230 222 229 231 228 201 211 213 212 218 219 213 208 216 220 180 186 183 178 171 225 158 164 149 135 174 174 172 190 143 131 129 126 141 239 241 256 245 246 246 247 240 247 260 270 270 265 272 262 266
318 323 270 233 238 224 226 225 222 205 205 209 218 201 195 204 210 176 187 179 189 192 175 145 145 191 169 145 144 143 153 147 176 181 188 148 166 217 228 215 227 240 226 241 252 250 256 256 267 272 271 268 263 267
313 310 300 260 250 234 222 231 199 196 197 197 192 179 194 152 141 129 151 159 189 208 147 116 142 155 165 146 131 131 155 180 183 225 150 202 232 239 235 245 254 254 254 253 247 249 249 250 259 268 263 270 273 271
315 309 316 289 243 257 203 197 194 192 189 182 185 146 140 138 135 148 155 192 162 173 171 150 174 139 184 133 162 183 158 151 153 237 165 198 258 247 241 244 253 255 256 259 261 267 270 275 276 273 269 266 267 259
312 312 321 317 242 227 209 183 192 189 185 188 162 134 137 137 155 171 179 127 132 199 177 150 189 157 151 160 117 170 160 123 220 145 134 224 251 253 251 245 256 258 262 264 267 269 270 268 265 266 265 256 247 241
313 322 359 355 333 237 218 203 192 184 169 134 139 153 155 158 171 184 152 287 173 171 166 160 146 140 131 166 104 147 173 205 118 169 212 225 250 262 268 255 249 251 254 258 258 257 254 254 253 248 246 226 215 210
342 84 68 23 29 65 208 205 182 178 154 111 137 135 163 165 184 176 185 166 180 169 152 140 119 136 135 135 143 161 194 112 190 192 220 241 343 312 299 273 257 253 243 242 241 239 237 232 227 210 198 192 190 189
140 73 81 59 41 31 67 145 154 154 102 94 102 119 139 102 75 115 116 114 89 149 143 101 85 113 134 175 184 113 166 197 199 221 238 340 338 328 316 290 261 243 231 217 211 209 206 200 191 179 171 172 173 172
56 56 34 30 43 74 54 62 93 68 81 112 100 103 69 79 345 79 90 98 105 145 120 119 130 132 198 174 150 205 164 209 238 226 334 351 0 3 7 13 345 178 177 175 170 174 173 169 168 165 158 155 151 149
80 69 21 25 359 351 49 70 44 59 53 40 32 74 78 90 119 101 97 98 135 143 140 150 159 195 91 182 214 36 202 355 342 334 335 345 6 18 29 50 75 120 147 155 156 159 160 155 148 143 148 145 151 154
89 58 40 32 26 33 96 64 64 63 62 32 55 22 53 64 90 98 108 120 127 113 106 127 115 82 146 184 137 44 13 349 356 5 347 350 358 351 13 126 143 153 155 152 147 149 147 144 142 144 148 152 145 133
64 29 20 27 34 48 71 59 61 92 70 67 73 69 75 86 73 73 95 100 107 94 102 43 94 81 86 34 1 349 348 356 346 347 355 9 35 69 89 110 126 137 143 135 138 147 149 148 144 147 146 142 143 139
15 8 351 277 141 64 71 54 60 78 68 70 76 61 69 72 85 58 68 82 86 54 43 39 45 42 8 328 324 316 314 323 326 343 332 351 88 113 124 134 140 144 146 141 145 146 140 137 142 143 139 135 133 127
322 350 354 181 97 69 75 53 58 67 79 78 70 57 58 59 45 37 31 31 58 33 49 34 0 350 345 328 314 327 322 312 306 302 315 312 228 188 160 149 145 143 150 149 151 145 142 139 143 140 127 128 140 146
28 96 91 79 74 68 72 50 76 80 72 83 58 54 49 42 34 24 32 49 58 29 3 348 349 342 350 6 354 347 338 326 316 305 264 227 205 183 164 154 154 163 164 158 153 153 150 143 142 144 147 160 175 169
102 100 65 43 81 48 32 39 66 37 82 39 75 60 35 52 55 32 74 63 70 4 360 357 356 358 10 18 15 14 10 19 18 7 107 144 163 161 159 160 160 162 159 155 156 162 168 167 168 174 182 212 234 253
90 55 33 38 29 34 23 33 44 55 62 44 57 65 27 30 53 60 70 53 360 5 14 16 21 43 50 42 46 49 52 56 60 78 93 103 128 142 145 150 148 152 160 168 179 191 201 210 208 213 232 253 265 274
78 12 21 8 18 21 30 19 10 43 61 16 79 60 5 40 71 57 67 3 1 12 16 27 39 44 48 55 55 56 57 64 69 80 88 89 91 95 106 124 120 129 150 227 243 237 229 224 231 245 260 270 276 280
67 14 36 353 9 35 351 39 26 11 9 61 42 342 45 66 63 52 25 348 353 8 12 19 27 43 48 47 49 57 58 64 70 72 75 71 69 66 60 53 60 38 340 308 289 271 257 251 256 264 274 281 284 287
50 355 7 22 356 336 40 44 38 49 50 28 352 12 43 64 58 341 357 356 359 14 25 31 39 42 39 43 47 51 49 48 52 59 60 59 54 43 30 15 358 340 327 310 295 282 272 270 274 277 281 281 286 290
58 26 18 343 36 33 43 41 32 24 3 350 333 37 71 53 65 352 358 16 34 46 51 59 63 57 54 50 42 39 36 38 50 69 63 68 61 46 38 24 4 341 324 310 304 298 292 288 286 286 285 285 287 288
29 352 0 33 51 48 41 27 12 350 337 359 53 72 85 68 68 63 57 63 69 73 72 69 69 70 68 57 50 46 45 50 59 67 63 43 6 350 358 345 332 320 310 303 299 295 292 298 293 282 283 287 289 292
360 4 24 46 46 34 15 35 43 60 70 82 97 104 94 80 75 76 74 68 64 62 60 55 49 42 35 26 23 18 12 16 21 15 2 344 336 328 324 319 315 310 305 301 298 293 288 286 283 281 283 286 288 290
354 6 63 51 72 47 54 70 75 80 90 98 106 102 106 99 61 51 47 44 43 41 38 33 27 22 15 5 355 345 337 318 318 321 314 310 308 305 303 304 304 303 301 300 299 297 295 293 292 292 291 290 291 292
19 34 74 90 84 90 58 53 72 101 98 91 78 99 94 89 82 44 31 30 27 24 17 8 2 357 350 345 339 326 315 310 310 312 310 308 305 302 303 304 302 298 296 295 294 293 293 293 293 292 292 291 291 292
47 46 59 76 69 37 15 23 74 92 88 87 71 83 82 80 97 147 5 16 10 4 3 357 348 343 341 339 333 326 318 319 319 318 315 314 313 314 313 310 300 299 298 297 297 298 297 296 295 294 293 293 293 293
Wind_Speed_850mb
56 60 60 60 60 59 59 62 61 56 53 46 47 45 42 38 37 36 24 18 19 11 8 15 13 9 10 13 7 18 12 4 3 5 6 6 5 8 5 3 11 14 18 9 4 6 19 26 10 17 11 9 28 34
59 59 66 67 65 62 61 59 59 56 55 54 51 48 48 49 41 47 37 29 26 13 7 24 32 28 25 24 21 35 5 11 14 6 3 6 5 2 4 7 4 6 11 11 17 10 1 56 12 33 20 23 35 42
60 57 62 67 71 64 61 61 57 59 57 57 59 62 51 50 52 49 51 38 32 17 16 27 27 41 30 26 27 20 10 17 17 12 9 4 7 7 9 10 2 8 8 3 6 9 13 49 34 18 30 30 32 38
64 67 65 69 70 71 64 60 65 61 64 61 60 62 55 54 51 54 53 44 41 9 4 8 20 35 34 34 24 21 15 32 27 17 8 5 6 12 6 2 6 7 18 12 5 3 6 23 38 36 36 35 36 38
66 71 73 71 66 68 63 57 62 60 63 63 62 52 57 66 58 48 49 54 50 28 11 6 8 18 33 37 35 27 21 31 20 8 5 4 8 8 3 3 8 17 12 9 9 25 21 21 32 32 37 33 27 34
53 57 62 69 67 63 59 57 66 65 62 61 57 53 54 48 52 57 33 60 73 60 9 2 6 12 33 29 37 34 28 27 18 15 6 9 9 8 6 6 10 26 25 33 16 38 42 40 40 36 35 38 43 42
41 41 51 58 60 61 60 58 62 60 65 50 58 58 51 53 58 49 15 19 48 64 16 3 5 7 26 28 25 28 38 19 15 13 7 14 10 23 5 13 10 16 25 34 46 50 38 51 39 41 37 32 33 35
35 35 35 42 54 59 56 64 56 52 57 54 47 47 49 54 56 58 70 15 54 56 20 8 4 3 19 11 9 18 18 16 10 10 9 6 12 7 9 10 13 42 46 52 62 59 61 60 57 53 41 43 43 47
31 25 14 36 30 52 50 61 55 52 53 50 39 34 40 42 25 34 49 37 68 27 12 7 12 10 26 11 13 12 13 4 14 6 7 19 6 12 18 30 39 63 62 66 60 60 61 62 65 61 58 53 50 50
28 25 23 25 27 38 52 53 65 60 50 47 49 23 11 21 28 49 23 24 25 15 11 4 14 6 20 9 5 11 9 6 6 9 22 8 7 69 51 63 77 69 60 59 60 55 55 54 60 61 56 51 50 53
25 23 23 16 24 22 60 53 54 57 50 61 25 13 36 54 23 12 8 8 8 7 17 15 19 9 19 7 6 8 5 4 6 9 13 5 8 38 64 80 93 88 80 76 71 69 60 58 53 47 46 45 54 51
19 18 16 21 21 26 25 50 56 67 38 60 32 42 49 15 11 9 9 6 5 11 11 10 14 12 19 14 6 10 7 5 11 11 7 6 16 64 51 55 68 72 76 78 73 66 61 58 54 48 43 39 39 36
11 11 11 13 5 25 30 54 51 68 55 53 19 17 16 10 9 13 11 1 9 7 21 18 4 16 12 11 6 5 10 10 16 7 8 11 40 26 16 26 39 48 51 49 48 44 40 38 32 27 26 26 25 23
4 7 17 14 17 14 33 47 78 83 42 10 8 11 8 7 6 6 9 10 8 15 41 38 12 7 9 5 6 9 7 7 8 9 14 7 17 27 23 21 23 28 29 29 28 25 24 23 22 21 21 21 21 21
4 7 12 13 11 20 21 46 60 57 10 9 10 8 4 7 9 9 13 12 9 27 46 14 12 9 3 5 6 6 7 8 11 10 5 21 31 29 25 18 15 15 15 16 16 17 17 18 20 22 23 21 19 17
16 15 24 10 8 9 6 8 20 16 9 10 8 8 3 6 5 7 11 11 14 36 18 9 7 7 7 6 7 12 12 13 7 3 11 21 21 21 17 13 5 6 11 15 16 17 20 21 20 20 21 19 15 11
4 18 22 16 9 4 3 10 12 10 10 8 7 16 9 13 10 10 12 11 28 13 4 4 8 10 3 3 5 3 3 3 4 9 17 17 14 14 12 13 7 8 13 17 21 22 23 25 24 21 17 16 12 8
20 15 16 14 10 8 8 9 9 10 11 15 6 9 13 17 17 16 17 21 11 7 5 4 7 2 1 6 5 4 9 11 11 16 19 18 13 7 3 4 7 10 16 22 25 28 28 27 24 19 14 10 8 6
12 10 9 12 13 8 7 8 9 8 8 7 12 14 15 21 28 17 16 17 18 15 10 6 7 4 5 6 6 13 22 21 15 19 17 13 10 12 13 14 17 19 22 26 27 26 25 23 20 18 16 11 9 7
9 12 8 2 3 6 7 10 10 12 5 5 9 10 11 13 15 25 25 22 17 11 15 10 6 5 5 7 13 19 19 19 13 11 8 5 3 8 12 14 15 16 17 19 19 18 17 17 16 14 14 13 10 7
16 12 5 1 6 11 12 8 13 10 8 11 9 10 11 13 15 19 22 21 23 15 6 13 13 17 14 13 10 15 13 14 8 7 9 8 7 8 10 16 17 17 15 17 16 16 15 15 15 13 10 9 7 5
5 7 10 11 9 10 14 16 11 8 8 8 8 10 13 6 11 15 14 30 14 13 15 22 28 26 17 11 12 13 14 12 9 9 9 9 12 12 13 14 15 15 15 14 13 13 13 12 10 9 7 6 4 3
15 11 10 12 9 13 7 10 7 9 7 2 5 7 6 6 8 9 13 12 10 25 30 29 25 17 13 14 13 15 14 11 7 3 5 9 11 11 13 13 13 12 12 12 11 10 9 8 7 6 6 4 4 4
14 12 16 14 22 4 5 10 9 8 8 7 6 6 6 5 7 12 7 8 22 30 31 28 25 15 13 15 18 17 16 17 14 11 13 12 9 12 12 10 10 8 6 7 6 6 6 6 7 7 6 6 6 6
10 22 16 14 19 11 11 8 9 8 6 6 6 6 4 5 6 7 5 13 36 36 35 27 24 26 22 18 19 20 19 18 19 18 20 19 14 11 9 7 7 5 2 2 3 6 7 8 8 8 9 10 11 12
16 19 13 11 12 9 8 7 9 7 5 7 7 6 5 6 9 8 4 26 29 34 34 30 26 23 25 22 19 19 20 17 16 14 16 15 12 8 4 4 3 3 3 4 6 7 9 11 12 13 13 16 17 19
12 10 16 18 10 7 6 10 11 9 10 9 6 8 6 10 8 6 16 26 26 27 24 21 19 20 23 22 18 16 16 16 14 12 10 10 8 7 7 7 7 6 8 8 9 10 13 15 17 19 21 21 21 24
12 21 10 23 15 20 7 7 9 10 7 13 3 11 7 7 1 12 14 20 19 18 20 22 23 24 26 26 24 20 17 14 12 13 15 15 15 15 13 11 10 11 11 12 13 14 16 18 20 23 25 27 27 28
13 31 12 9 11 16 16 10 7 9 13 6 4 6 6 10 16 20 24 23 23 27 30 29 25 20 21 23 24 26 25 20 15 13 11 8 7 10 14 13 14 16 17 17 18 19 20 20 24 30 32 34 36 41
19 29 9 12 10 11 15 15 15 27 36 36 37 53 46 42 38 35 37 37 39 40 38 36 32 30 30 25 21 18 18 19 22 21 20 19 23 25 25 25 25 25 27 29 30 30 31 34 35 39 43 46 48 51
19 15 10 15 9 8 15 24 34 38 42 43 42 41 32 25 48 52 38 31 27 27 29 34 36 41 43 42 37 31 24 17 24 26 28 30 33 36 38 39 40 41 43 43 43 44 46 47 48 50 52 54 55 57
18 16 7 7 3 6 8 8 11 15 14 12 11 14 11 8 9 17 62 50 38 36 34 36 41 47 50 47 38 34 36 40 43 44 44 44 44 46 47 47 47 49 49 50 51 53 55 57 60 61 63 66 67 68
8 14 15 9 5 4 10 7 4 5 5 4 5 8 9 6 6 5 12 61 51 34 31 34 42 51 47 38 35 31 35 37 38 38 38 39 40 41 40 37 44 46 50 54 56 57 58 58 60 61 62 64 66 67
Wind_Direction_850mb
264 263 262 267 270 249 248 244 243 244 234 233 231 234 227 225 225 226 231 214 206 190 206 215 219 176 150 160 153 155 113 127 104 182 157 168 146 187 122 137 172 161 172 199 124 190 257 165 106 167 191 140 165 171
267 263 260 261 261 271 239 245 238 239 230 234 234 231 223 218 218 221 223 211 203 213 245 214 220 218 215 224 180 171 122 155 153 109 100 105 135 162 125 209 179 231 188 180 189 204 258 176 185 188 164 170 183 197
267 264 261 257 256 259 260 239 238 241 240 240 234 230 222 216 214 215 217 215 192 215 257 246 236 222 213 201 197 150 194 173 183 151 147 135 164 135 160 235 166 241 146 183 106 195 211 197 206 188 212 225 232 236
268 267 262 253 254 249 256 244 231 238 238 241 236 232 212 217 214 214 217 212 207 167 198 257 229 224 214 211 203 193 179 174 165 152 115 137 150 191 188 166 198 199 133 158 262 235 195 232 218 222 235 247 260 264
273 266 257 249 249 244 245 247 230 232 236 236 229 228 221 219 208 209 218 227 225 201 198 257 237 213 211 214 216 210 200 181 159 123 96 172 128 119 20 33 247 182 158 174 211 199 189 214 230 246 242 248 262 270
282 269 258 238 239 236 237 243 231 229 228 228 226 224 226 228 214 210 198 229 218 198 191 190 213 187 200 198 211 209 200 193 182 141 172 165 149 129 140 216 228 184 193 219 221 248 232 257 261 262 252 251 261 263
288 272 253 230 229 232 234 237 237 220 220 226 220 218 217 216 210 206 191 223 210 205 189 198 297 191 187 182 185 192 196 194 192 161 148 141 176 170 119 241 109 180 219 230 241 246 251 254 258 265 260 264 259 257
315 277 238 235 230 222 229 231 228 201 211 213 212 218 219 213 208 216 220 180 186 183 178 171 225 158 164 149 135 174 174 172 190 143 131 129 126 141 239 241 256 245 246 246 247 240 247 260 270 270 265 272 262 266
318 323 270 233 238 224 226 225 222 205 205 209 218 201 195 204 210 176 187 179 189 192 175 145 145 191 169 145 144 143 153 147 176 181 188 148 166 217 228 215 227 240 226 241 252 250 256 256 267 272 271 268 263 267
313 310 300 260 250 234 222 231 199 196 197 197 192 179 194 152 141 129 151 159 189 208 147 116 142 155 165 146 131 131 155 180 183 225 150 202 232 239 235 245 254 254 254 253 247 249 249 250 259 268 263 270 273 271
315 309 316 289 243 257 203 197 194 192 189 182 185 146 140 138 135 148 155 192 162 173 171 150 174 139 184 133 162 183 158 151 153 237 165 198 258 247 241 244 253 255 256 259 261 267 270 275 276 273 269 266 267 259
312 312 321 317 242 227 209 183 192 189 185 188 162 134 137 137 155 171 179 127 132 199 177 150 189 157 151 160 117 170 160 123 220 145 134 224 251 253 251 245 256 258 262 264 267 269 270 268 265 266 265 256 247 241
313 322 359 355 333 237 218 203 192 184 169 134 139 153 155 158 171 184 152 287 173 171 166 160 146 140 131 166 104 147 173 205 118 169 212 225 250 262 268 255 249 251 254 258 258 257 254 254 253 248 246 226 215 210
342 84 68 23 29 65 208 205 182 178 154 111 137 135 163 165 184 176 185 166 180 169 152 140 119 136 135 135 143 161 194 112 190 192 220 241 343 312 299 273 257 253 243 242 241 239 237 232 227 210 198 192 190 189
140 73 81 59 41 31 67 145 154 154 102 94 102 119 139 102 75 115 116 114 89 149 143 101 85 113 134 175 184 113 166 197 199 221 238 340 338 328 316 290 261 243 231 217 211 209 206 200 191 179 171 172 173 172
56 56 34 30 43 74 54 62 93 68 81 112 100 103 69 79 345 79 90 98 105 145 120 119 130 132 198 174 150 205 164 209 238 226 334 351 0 3 7 13 345 178 177 175 170 174 173 169 168 165 158 155 151 149
80 69 21 25 359 351 49 70 44 59 53 40 32 74 78 90 119 101 97 98 135 143 140 150 159 195 91 182 214 36 202 355 342 334 335 345 6 18 29 50 75 120 147 155 156 159 160 155 148 143 148 145 151 154
89 58 40 32 26 33 96 64 64 63 62 32 55 22 53 64 90 98 108 120 127 113 106 127 115 82 146 184 137 44 13 349 356 5 347 350 358 351 13 126 143 153 155 152 147 149 147 144 142 144 148 152 145 133
64 29 20 27 34 48 71 59 61 92 70 67 73 69 75 86 73 73 95 100 107 94 102 43 94 81 86 34 1 349 348 356 346 347 355 9 35 69 89 110 126 137 143 135 138 147 149 148 144 147 146 142 143 139
15 8 351 277 141 64 71 54 60 78 68 70 76 61 69 72 85 58 68 82 86 54 43 39 45 42 8 328 324 316 314 323 326 343 332 351 88 113 124 134 140 144 146 141 145 146 140 137 142 143 139 135 133 127
322 350 354 181 97 69 75 53 58 67 79 78 70 57 58 59 45 37 31 31 58 33 49 34 0 350 345 328 314 327 322 312 306 302 315 312 228 188 160 149 145 143 150 149 151 145 142 139 143 140 127 128 140 146
28 96 91 79 74 68 72 50 76 80 72 83 58 54 49 42 34 24 32 49 58 29 3 348 349 342 350 6 354 347 338 326 316 305 264 227 205 183 164 154 154 163 164 158 153 153 150 143 142 144 147 160 175 169
102 100 65 43 81 48 32 39 66 37 82 39 75 60 35 52 55 32 74 63 70 4 360 357 356 358 10 18 15 14 10 19 18 7 107 144 163 161 159 160 160 162 159 155 156 162 168 167 168 174 182 212 234 253
90 55 33 38 29 34 23 33 44 55 62 44 57 65 27 30 53 60 70 53 360 5 14 16 21 43 50 42 46 49 52 56 60 78 93 103 128 142 145 150 148 152 160 168 179 191 201 210 208 213 232 253 265 274
78 12 21 8 18 21 30 19 10 43 61 16 79 60 5 40 71 57 67 3 1 12 16 27 39 44 48 55 55 56 57 64 69 80 88 89 91 95 106 124 120 129 150 227 243 237 229 224 231 245 260 270 276 280
67 14 36 353 9 35 351 39 26 11 9 61 42 342 45 66 63 52 25 348 353 8 12 19 27 43 48 47 49 57 58 64 70 72 75 71 69 66 60 53 60 38 340 308 289 271 257 251 256 264 274 281 284 287
50 355 7 22 356 336 40 44 38 49 50 28 352 12 43 64 58 341 357 356 359 14 25 31 39 42 39 43 47 51 49 48 52 59 60 59 54 43 30 15 358 340 327 310 295 282 272 270 274 277 281 281 286 290
58 26 18 343 36 33 43 41 32 24 3 350 333 37 71 53 65 352 358 16 34 46 51 59 63 57 54 50 42 39 36 38 50 69 63 68 61 46 38 24 4 341 324 310 304 298 292 288 286 286 285 285 287 288
29 352 0 33 51 48 41 27 12 350 337 359 53 72 85 68 68 63 57 63 69 73 72 69 69 70 68 57 50 46 45 50 59 67 63 43 6 350 358 345 332 320 310 303 299 295 292 298 293 282 283 287 289 292
360 4 24 46 46 34 15 35 43 60 70 82 97 104 94 80 75 76 74 68 64 62 60 55 49 42 35 26 23 18 12 16 21 15 2 344 336 328 324 319 315 310 305 301 298 293 288 286 283 281 283 286 288 290
354 6 63 51 72 47 54 70 75 80 90 98 106 102 106 99 61 51 47 44 43 41 38 33 27 22 15 5 355 345 337 318 318 321 314 310 308 305 303 304 304 303 301 300 299 297 295 293 292 292 291 290 291 292
19 34 74 90 84 90 58 53 72 101 98 91 78 99 94 89 82 44 31 30 27 24 17 8 2 357 350 345 339 326 315 310 310 312 310 308 305 302 303 304 302 298 296 295 294 293 293 293 293 292 292 291 291 292
47 46 59 76 69 37 15 23 74 92 88 87 71 83 82 80 97 147 5 16 10 4 3 357 348 343 341 339 333 326 318 319 319 318 315 314 313 314 313 310 300 299 298 297 297 298 297 296 295 294 293 293 293 293